| time (UTC) | temp F | wind direction | speed knots | gust knots | rain 1hr in | rain 24hr in | rain mn in | humidity % | barometer mb |
| 20260506115403 | 47 | 323 | 3.5 | 7.0 | 0.00 | 0.00 | 0.00 | 43 | 1010.2 |
| 20260506114503 | 47 | 312 | 4.3 | 7.0 | 0.00 | 0.00 | 0.00 | 44 | 1010.1 |
| 20260506113603 | 46 | 319 | 3.5 | 7.8 | 0.00 | 0.00 | 0.00 | 46 | 1010.1 |
| 20260506112703 | 47 | 309 | 2.6 | 7.0 | 0.00 | 0.00 | 0.00 | 41 | 1009.8 |
| 20260506111803 | 47 | 309 | 3.5 | 7.0 | 0.00 | 0.00 | 0.00 | 43 | 1009.9 |
| 20260506110903 | 47 | 314 | 3.5 | 7.0 | 0.00 | 0.00 | 0.00 | 43 | 1009.9 |
| 20260506110003 | 46 | 311 | 3.5 | 7.0 | 0.00 | 0.00 | 0.00 | 50 | 1009.8 |
| 20260506105613 | 47 | 312 | 3.5 | 7.0 | 0.00 | 0.00 | 0.00 | 48 | 1009.8 |
| 20260506104503 | 46 | 313 | 3.5 | 7.0 | 0.00 | 0.00 | 0.00 | 46 | 1010.0 |
| 20260506103603 | 46 | 311 | 4.3 | 7.0 | 0.00 | 0.00 | 0.00 | 50 | 1009.9 |
| 20260506102703 | 46 | 308 | 3.5 | 9.6 | 0.00 | 0.00 | 0.00 | 47 | 1009.8 |
| 20260506101803 | 46 | 311 | 4.3 | 9.6 | 0.00 | 0.00 | 0.00 | 46 | 1009.6 |
| 20260506100903 | 45 | 313 | 2.6 | 7.0 | 0.00 | 0.00 | 0.00 | 48 | 1009.7 |
| 20260506100217 | 46 | 308 | 3.5 | 9.6 | 0.00 | 0.00 | 0.00 | 45 | 1009.7 |
| 20260506095403 | 45 | 309 | 3.5 | 7.8 | 0.00 | 0.00 | 0.00 | 50 | 1009.6 |
| 20260506094503 | 45 | 312 | 4.3 | 9.6 | 0.00 | 0.00 | 0.00 | 50 | 1009.5 |
| 20260506093603 | 44 | 310 | 2.6 | 7.0 | 0.00 | 0.00 | 0.00 | 53 | 1009.4 |
| 20260506092703 | 45 | 309 | 2.6 | 7.8 | 0.00 | 0.00 | 0.00 | 57 | 1009.5 |
| 20260506091803 | 45 | 303 | 3.5 | 9.6 | 0.00 | 0.00 | 0.00 | 51 | 1009.2 |
| 20260506091115 | 45 | 316 | 5.2 | 7.8 | 0.00 | 0.00 | 0.00 | 50 | 1009.2 |
| 20260506090003 | 44 | 314 | 3.5 | 9.6 | 0.00 | 0.00 | 0.00 | 51 | 1009.5 |
| 20260506085403 | 44 | 309 | 4.3 | 9.6 | 0.00 | 0.00 | 0.00 | 53 | 1009.3 |
| 20260506084503 | 44 | 317 | 3.5 | 7.0 | 0.00 | 0.00 | 0.00 | 52 | 1009.3 |
| 20260506083603 | 44 | 309 | 3.5 | 7.8 | 0.00 | 0.00 | 0.00 | 52 | 1008.9 |
| 20260506082916 | 43 | 311 | 4.3 | 7.8 | 0.00 | 0.00 | 0.00 | 52 | 1008.9 |
| 20260506081803 | 43 | 313 | 3.5 | 11.3 | 0.00 | 0.00 | 0.00 | 53 | 1009.0 |
| 20260506080903 | 43 | 319 | 3.5 | 7.0 | 0.00 | 0.00 | 0.00 | 55 | 1008.9 |
| 20260506080213 | 43 | 312 | 4.3 | 9.6 | 0.00 | 0.00 | 0.00 | 57 | 1008.7 |
| 20260506072704 | 42 | 314 | 6.1 | 12.2 | 0.00 | 0.00 | 0.00 | 62 | 1008.4 |
| 20260506071803 | 42 | 303 | 3.5 | 11.3 | 0.00 | 0.00 | 0.00 | 57 | 1008.6 |
| 20260506071116 | 42 | 306 | 4.3 | 9.6 | 0.00 | 0.00 | 0.00 | 58 | 1008.4 |
| 20260506062015 | 41 | 312 | 4.3 | 9.6 | 0.00 | 0.00 | 0.00 | 66 | 1008.0 |
| 20260506061117 | 40 | 309 | 2.6 | 6.1 | 0.00 | 0.00 | 0.00 | 69 | 1008.1 |
| 20260506050903 | 39 | 315 | 3.5 | 5.2 | 0.00 | 0.01 | 0.00 | 74 | 1007.6 |
| 20260506044503 | 38 | 314 | 2.6 | 5.2 | 0.00 | 0.01 | 0.00 | 76 | 1007.4 |
| 20260506043603 | 38 | 311 | 3.5 | 5.2 | 0.00 | 0.01 | 0.00 | 79 | 1007.4 |
| 20260506042703 | 37 | 323 | 1.7 | 5.2 | 0.00 | 0.01 | 0.00 | 79 | 1007.2 |
| 20260506042016 | 37 | 313 | 2.6 | 7.0 | 0.00 | 0.01 | 0.00 | 79 | 1007.4 |
| 20260506040903 | 37 | 305 | 3.5 | 7.8 | 0.00 | 0.01 | 0.00 | 80 | 1007.1 |
| 20260506040003 | 37 | 317 | 3.5 | 6.1 | 0.00 | 0.01 | 0.00 | 81 | 1006.9 |
| 20260506035403 | 36 | 318 | 3.5 | 5.2 | 0.00 | 0.01 | 0.00 | 81 | 1007.0 |
| 20260506034503 | 36 | 318 | 2.6 | 3.5 | 0.00 | 0.01 | 0.00 | 82 | 1006.7 |
| 20260506033603 | 36 | 315 | 2.6 | 6.1 | 0.00 | 0.01 | 0.00 | 83 | 1006.7 |
| 20260506032703 | 36 | 318 | 2.6 | 6.1 | 0.00 | 0.01 | 0.00 | 84 | 1006.7 |
| 20260506031803 | 36 | 310 | 2.6 | 5.2 | 0.00 | 0.01 | 0.00 | 86 | 1006.7 |
| 20260506030903 | 35 | 309 | 1.7 | 3.5 | 0.00 | 0.01 | 0.00 | 86 | 1006.3 |
| 20260506030003 | 35 | 310 | 3.5 | 6.1 | 0.00 | 0.01 | 0.00 | 87 | 1006.2 |
| 20260506025403 | 35 | 309 | 2.6 | 6.1 | 0.00 | 0.01 | 0.00 | 87 | 1006.5 |
| 20260506024503 | 35 | 310 | 2.6 | 6.1 | 0.00 | 0.01 | 0.00 | 88 | 1006.4 |
| 20260506023812 | 35 | 310 | 1.7 | 5.2 | 0.00 | 0.01 | 0.00 | 87 | 1006.2 |
| 20260506022703 | 35 | 323 | 1.7 | 5.2 | 0.00 | 0.01 | 0.00 | 87 | 1006.1 |
| 20260506021803 | 34 | 312 | 1.7 | 5.2 | 0.00 | 0.01 | 0.00 | 88 | 1006.0 |
| 20260506020903 | 34 | 324 | 1.7 | 6.1 | 0.00 | 0.01 | 0.00 | 88 | 1006.0 |
| 20260506020003 | 34 | 330 | 1.7 | 6.1 | 0.00 | 0.01 | 0.00 | 87 | 1006.0 |
| 20260506015403 | 34 | 328 | 1.7 | 6.1 | 0.00 | 0.01 | 0.00 | 87 | 1005.9 |
| 20260506014503 | 34 | 309 | 3.5 | 6.1 | 0.00 | 0.01 | 0.00 | 86 | 1005.9 |
| 20260506013603 | 34 | 309 | 2.6 | 3.5 | 0.00 | 0.01 | 0.00 | 86 | 1005.8 |
| 20260506012703 | 34 | 311 | 1.7 | 6.1 | 0.00 | 0.01 | 0.00 | 87 | 1005.5 |
| 20260506012013 | 34 | 318 | 1.7 | 7.8 | 0.00 | 0.01 | 0.00 | 86 | 1005.5 |
| 20260506010903 | 34 | 321 | 4.3 | 7.0 | 0.00 | 0.01 | 0.00 | 84 | 1005.4 |
| 20260506010003 | 34 | 304 | 3.5 | 6.1 | 0.00 | 0.01 | 0.00 | 84 | 1005.4 |
| 20260506005403 | 35 | 306 | 3.5 | 7.0 | 0.00 | 0.01 | 0.00 | 84 | 1005.4 |
| 20260506004504 | 35 | 303 | 4.3 | 7.0 | 0.00 | 0.01 | 0.00 | 83 | 1005.2 |
| 20260506003603 | 35 | 298 | 3.5 | 6.1 | 0.00 | 0.01 | 0.00 | 83 | 1005.2 |
| 20260506002703 | 35 | 305 | 2.6 | 6.1 | 0.00 | 0.01 | 0.00 | 83 | 1005.4 |
| 20260506001803 | 35 | 302 | 3.5 | 5.2 | 0.00 | 0.01 | 0.00 | 83 | 1004.9 |
| 20260506000903 | 36 | 315 | 1.7 | 6.1 | 0.00 | 0.01 | 0.00 | 83 | 1005.2 |
| 20260506000213 | 36 | 315 | 1.7 | 6.1 | 0.00 | 0.01 | 0.00 | 81 | 1004.9 |
| 20260505235403 | 36 | 318 | 2.6 | 5.2 | 0.00 | 0.01 | 0.00 | 81 | 1005.1 |
| 20260505234503 | 36 | 299 | 2.6 | 3.5 | 0.00 | 0.01 | 0.00 | 81 | 1004.9 |
| 20260505233603 | 36 | 299 | 1.7 | 5.2 | 0.00 | 0.01 | 0.00 | 81 | 1004.9 |
| 20260505232917 | 36 | 303 | 2.6 | 5.2 | 0.00 | 0.01 | 0.00 | 79 | 1004.9 |
| 20260505232014 | 36 | 308 | 1.7 | 5.2 | 0.00 | 0.01 | 0.00 | 79 | 1004.8 |
| 20260505230903 | 37 | 301 | 1.7 | 3.5 | 0.00 | 0.01 | 0.00 | 80 | 1004.6 |
| 20260505230003 | 36 | 308 | 1.7 | 7.0 | 0.00 | 0.01 | 0.00 | 79 | 1005.0 |
| 20260505225403 | 36 | 301 | 2.6 | 7.0 | 0.00 | 0.01 | 0.00 | 79 | 1004.7 |
| 20260505224503 | 37 | 292 | 3.5 | 7.0 | 0.00 | 0.01 | 0.00 | 77 | 1004.9 |
| 20260505223603 | 37 | 303 | 1.7 | 6.1 | 0.00 | 0.01 | 0.00 | 76 | 1004.7 |
| 20260505222703 | 37 | 296 | 3.5 | 7.0 | 0.00 | 0.01 | 0.00 | 74 | 1004.7 |
| 20260505221803 | 38 | 298 | 4.3 | 7.0 | 0.00 | 0.01 | 0.00 | 73 | 1004.8 |
| 20260505220903 | 38 | 305 | 2.6 | 6.1 | 0.00 | 0.01 | 0.00 | 72 | 1005.0 |
| 20260505220003 | 38 | 300 | 3.5 | 7.0 | 0.00 | 0.01 | 0.00 | 71 | 1004.6 |
| 20260505215403 | 38 | 302 | 4.3 | 6.1 | 0.00 | 0.01 | 0.00 | 71 | 1004.8 |
| 20260505214503 | 38 | 297 | 3.5 | 7.0 | 0.00 | 0.01 | 0.00 | 72 | 1004.5 |
| 20260505213603 | 39 | 301 | 4.3 | 7.8 | 0.00 | 0.01 | 0.00 | 70 | 1004.8 |
| 20260505212913 | 39 | 303 | 3.5 | 9.6 | 0.00 | 0.01 | 0.00 | 70 | 1004.6 |
| 20260505211803 | 39 | 302 | 3.5 | 9.6 | 0.00 | 0.01 | 0.00 | 69 | 1004.6 |
| 20260505211112 | 39 | 304 | 3.5 | 9.6 | 0.00 | 0.01 | 0.00 | 69 | 1004.6 |
| 20260505210003 | 40 | 300 | 3.5 | 7.8 | 0.00 | 0.01 | 0.00 | 70 | 1004.4 |
| 20260505205403 | 40 | 306 | 1.7 | 7.8 | 0.00 | 0.01 | 0.01 | 69 | 1004.5 |
| 20260505204503 | 40 | 313 | 3.5 | 7.8 | 0.00 | 0.01 | 0.01 | 65 | 1004.3 |
| 20260505203603 | 41 | 308 | 3.5 | 7.0 | 0.00 | 0.01 | 0.01 | 67 | 1004.5 |
| 20260505202703 | 41 | 308 | 3.5 | 7.8 | 0.00 | 0.01 | 0.01 | 66 | 1004.2 |
| 20260505201803 | 41 | 303 | 3.5 | 6.1 | 0.00 | 0.01 | 0.01 | 65 | 1004.1 |
| 20260505201113 | 42 | 310 | 3.5 | 6.1 | 0.00 | 0.01 | 0.01 | 65 | 1004.0 |
| 20260505200216 | 42 | 308 | 2.6 | 6.1 | 0.00 | 0.01 | 0.01 | 65 | 1003.9 |
| 20260505195403 | 42 | 316 | 3.5 | 7.8 | 0.00 | 0.01 | 0.01 | 63 | 1004.0 |
| 20260505194503 | 43 | 309 | 3.5 | 6.1 | 0.00 | 0.01 | 0.01 | 65 | 1004.1 |
| 20260505193603 | 43 | 312 | 3.5 | 9.6 | 0.00 | 0.01 | 0.01 | 61 | 1003.7 |
| 20260505192703 | 43 | 309 | 3.5 | 7.0 | 0.00 | 0.01 | 0.01 | 62 | 1003.7 |
| 20260505191803 | 44 | 317 | 3.5 | 6.1 | 0.00 | 0.01 | 0.01 | 58 | 1003.6 |
| 20260505190903 | 44 | 312 | 3.5 | 7.0 | 0.00 | 0.01 | 0.01 | 59 | 1003.5 |
| 20260505190003 | 44 | 311 | 4.3 | 7.0 | 0.00 | 0.01 | 0.01 | 58 | 1003.5 |
| 20260505185403 | 44 | 314 | 3.5 | 6.1 | 0.00 | 0.01 | 0.01 | 57 | 1003.4 |
| 20260505184503 | 45 | 316 | 3.5 | 7.0 | 0.00 | 0.01 | 0.01 | 56 | 1003.3 |
| 20260505183812 | 45 | 312 | 3.5 | 7.0 | 0.00 | 0.01 | 0.01 | 53 | 1003.3 |
| 20260505182703 | 45 | 311 | 3.5 | 7.8 | 0.00 | 0.01 | 0.01 | 55 | 1003.1 |
| 20260505181803 | 45 | 315 | 2.6 | 3.5 | 0.00 | 0.01 | 0.01 | 50 | 1002.9 |
| 20260505180903 | 45 | 311 | 1.7 | 3.5 | 0.00 | 0.01 | 0.01 | 55 | 1002.7 |
| 20260505180003 | 46 | 317 | 1.7 | 5.2 | 0.00 | 0.01 | 0.01 | 53 | 1002.9 |
| 20260505175403 | 46 | 315 | 2.6 | 9.6 | 0.00 | 0.01 | 0.01 | 51 | 1002.6 |
| 20260505174503 | 46 | 312 | 3.5 | 6.1 | 0.00 | 0.01 | 0.01 | 50 | 1002.9 |
| 20260505173603 | 46 | 317 | 2.6 | 6.1 | 0.00 | 0.01 | 0.01 | 51 | 1002.6 |
| 20260505172703 | 46 | 308 | 2.6 | 3.5 | 0.00 | 0.01 | 0.01 | 53 | 1002.8 |
| 20260505172013 | 46 | 311 | 2.6 | 3.5 | 0.00 | 0.01 | 0.01 | 53 | 1002.6 |
| 20260505170903 | 46 | 311 | 3.5 | 5.2 | 0.00 | 0.01 | 0.01 | 51 | 1002.8 |
| 20260505170003 | 48 | 314 | 3.5 | 5.2 | 0.00 | 0.01 | 0.01 | 44 | 1002.5 |
| 20260505165403 | 48 | 320 | 2.6 | 7.8 | 0.00 | 0.01 | 0.01 | 44 | 1002.4 |
| 20260505164503 | 48 | 327 | 3.5 | 13.0 | 0.00 | 0.01 | 0.01 | 47 | 1002.5 |
| 20260505163814 | 47 | 311 | 3.5 | 13.0 | 0.00 | 0.01 | 0.01 | 47 | 1002.3 |
| 20260505162703 | 47 | 312 | 3.5 | 6.1 | 0.00 | 0.01 | 0.01 | 42 | 1002.4 |
| 20260505161803 | 47 | 303 | 2.6 | 7.8 | 0.00 | 0.01 | 0.01 | 44 | 1002.4 |
| 20260505160903 | 47 | 310 | 3.5 | 6.1 | 0.00 | 0.01 | 0.01 | 45 | 1002.2 |
| 20260505152703 | 48 | 313 | 4.3 | 7.0 | 0.00 | 0.01 | 0.01 | 43 | 1002.1 |
| 20260505152014 | 48 | 312 | 3.5 | 7.8 | 0.00 | 0.01 | 0.01 | 45 | 1002.0 |
| 20260505151116 | 48 | 314 | 3.5 | 9.6 | 0.00 | 0.01 | 0.01 | 47 | 1001.8 |
| 20260505124714 | 46 | 306 | 3.5 | 12.2 | 0.00 | 0.01 | 0.01 | 53 | 1000.8 |
| 20260505123603 | 47 | 307 | 7.0 | 13.9 | 0.00 | 0.01 | 0.01 | 48 | 1000.7 |
| 20260505122703 | 47 | 296 | 10.4 | 13.9 | 0.00 | 0.01 | 0.01 | 49 | 1000.8 |
| 20260505122016 | 47 | 311 | 3.5 | 7.0 | 0.00 | 0.01 | 0.01 | 53 | 1000.6 |
| 20260505120903 | 46 | 311 | 3.5 | 9.6 | 0.00 | 0.01 | 0.01 | 56 | 1000.5 |
| 20260505120004 | 46 | 312 | 4.3 | 7.8 | 0.00 | 0.01 | 0.01 | 54 | 1000.7 |